Regional Weather Roundup
Issued by NWS Kansas City/Pleasant Hill, MO

Home | Current Version | Previous Version | Graphics & Text | Print | Product List | Glossary Off
Versions: 1 2 3 4 5 6 7 8 9 10 11 12 13 14 15 16 17 18 19 20 21 22 23 24 25 26 27

000
ASUS43 KEAX 290010
RWREAX

WEATHER ROUNDUP FOR EASTERN KANSAS AND NORTHWEST MISSOURI
NATIONAL WEATHER SERVICE KANSAS CITY/PLEASANT HILL MO
700 PM CDT THU JUL 28 2016

KSZ040-057-103>105-MOZ028-029-037-043-290100-
...KANSAS CITY METROPOLITAN AREA...

CITY           SKY/WX    TMP DP  RH WIND       PRES   REMARKS
K.C. INTL      MOSUNNY   85  65  51 N9        29.93R
6HR MIN TEMP:  85; 6HR MAX TEMP:  89;

K.C. DOWNTOWN  SUNNY     88  67  49 N8        29.91R HX  91
6HR MIN TEMP:  87; 6HR MAX TEMP:  92;

LEES SUMMIT    SUNNY     86  68  54 NE10      29.93R
6HR MIN TEMP:  86; 6HR MAX TEMP:  90;

OLATHE - IXD   SUNNY     87  67  51 N9        29.93S HX  90
6HR MIN TEMP:  87; 6HR MAX TEMP:  91;

OLATHE - OJC   SUNNY     88  66  48 N9        29.92F HX  90
6HR MIN TEMP:  87; 6HR MAX TEMP:  91;

LAWRENCE       SUNNY     84  68  58 N7        29.92R

$$

MOZ001>008-011>017-020>025-030>033-038>040-044>046-053-054-290100-
...NORTHERN AND CENTRAL MISSOURI...

CITY           SKY/WX    TMP DP  RH WIND       PRES   REMARKS
ST. JOSEPH     SUNNY     84  67  56 N9        29.93S
6HR MIN TEMP:  84; 6HR MAX TEMP:  88;

MOSBY          CLEAR     86  63  45 N7        29.92R
WHITEMAN AFB   MOSUNNY   85  73  67 NE5       29.90S HX  91
6HR MIN TEMP:  83; 6HR MAX TEMP:  89;

CLINTON        SUNNY     86  72  62 N5        29.92S HX  92
SEDALIA        MOSUNNY   84  75  74 CALM      29.93S HX  92
6HR MIN TEMP:  77; 6HR MAX TEMP:  90; 6HR PCP:  0.12;

WARSAW         NOT AVBL
CHILLICOTHE      N/A     87  65  47 N8        29.93R
6HR MIN TEMP:  84; 6HR MAX TEMP:  90;

KIRKSVILLE     SUNNY     81  64  56 N13       29.94R
6HR MIN TEMP:  81; 6HR MAX TEMP:  88;


$$

MOZ041-047>049-056>058-063>065-088>090-097-290100-
...EASTERN AND SOUTHERN MISSOURI...

CITY           SKY/WX    TMP DP  RH WIND       PRES   REMARKS
ST. LOUIS INTL PTSUNNY   87  70  56 N9        29.88S HX  92
6HR MIN TEMP:  87; 6HR MAX TEMP:  91;

SPIRIT OF STL  PTSUNNY   86  71  60 N5        29.86S HX  91
COLUMBIA       MOSUNNY   79  71  76 N3        29.92S
JEFFERSON CITY MOSUNNY   78  70  76 E5        29.91R
ROLLA          PTSUNNY   78  70  76 SW3       29.91F
OSAGE BEACH    PTSUNNY   81  72  74 S6        29.92F
SPRINGFIELD    SUNNY     83  69  62 NE6       29.93F
BRANSON        PTSUNNY   82  72  69 W5        29.95S
JOPLIN         CLOUDY    87  73  62 CALM      29.92S HX  94
WEST PLAINS    SUNNY     85  71  63 NW5       29.94R HX  90

$$

IAZ060-094-KSZ022-034>040-054-083-096-NEZ052-066-093-290100-
...KANSAS...SOUTHEAST NEBRASKA AND IOWA...

CITY           SKY/WX    TMP DP  RH WIND       PRES   REMARKS
TOPEKA         MOSUNNY   88  69  53 NE9       29.93R HX  92
6HR MIN TEMP:  87; 6HR MAX TEMP:  93;

MANHATTAN      CLOUDY    87  69  54 CALM      29.92S HX  91
EMPORIA        SUNNY     88  65  46 E3        29.92F HX  90
CHANUTE        CLOUDY    88  72  58 CALM      29.91F HX  94
WICHITA        MOSUNNY   87  68  52 SE13      29.91F HX  90
OMAHA          PTSUNNY   81  64  56 N8        29.98R
LINCOLN        CLOUDY    80  64  58 NE12      29.99S
FALLS CITY     SUNNY     82  67  60 NE6       29.95S
LAMONI         SUNNY     78  66  66 N9        29.97R
DES MOINES     MOSUNNY   79  62  56 N10       29.95S

$$





USA.gov is the U.S. government's official web portal to all federal, state and local government web resources and services.